Weather in Halikounas

Greece     39°27′26″N   19°52′14″E
temp.,
°C
wind,
m/s
gust,
m/s
humid.,
%
clouds,
%
prec.,
mm/h
press.,
hPa
HPBL,
m
17 may, tue
tue1700:00+21nw11805 0.0 101911
03:00+21n12791 0.0 101817
06:00+20ne11820 0.0 101737
09:00+20nne01810 0.0 101829
12:00+21wsw22755 0.0 1018153
15:00+21w44764 0.0 1017171
18:00+21w56772 0.0 1015146
21:00+21wnw45771 0.0 101563
18 may, wed
wed1800:00+21nnw33790 0.0 101649
03:00+21nw11801 0.0 101426
06:00+20nnw12821 0.0 101474
09:00+20nne22790 0.0 1015101
12:00+20nw67831 0.0 1015280
15:00+21nw1011810 0.0 1014254
18:00+21nw911830 0.0 1013234
21:00+20nw910850 0.0 1013253
19 may, thu
thu1900:00+21e56830 0.1 1015122
03:00+22e8125914 0.1 1016325
06:00+20e111359100 0.0 1018637
09:00+20e89559 0.0 1022607
12:00+20se44580 0.0 1024212
15:00+20w55630 0.0 1024364
18:00+21wnw67660 0.0 1024387
21:00+20nw56720 0.0 1025397
20 may, fri
fri2000:00+20wnw01720 0.0 1025141
03:00+20nne01690 0.0 1025154
06:00+19e22720 0.0 1025205
09:00+19ene33650 0.0 1026205
12:00+19w33680 0.0 1026285
15:00+20nw77680 0.0 1024286
18:00+21nnw89690 0.0 1023220
21:00+21nnw78735 0.0 1022147
21 may, sat
sat2100:00+21nw457335 0.0 1021117
03:00+20nnw347210 0.0 1020120
06:00+20nnw33705 0.0 1019170
09:00+20e22685 0.0 1019168
12:00+20ssw22690 0.0 1019182
15:00+21wnw55650 0.0 1018256
18:00+21nw79662 0.0 1016178
21:00+21nnw56725 0.0 1015107